FW8197 Weather Reports


time (UTC)temp
C
wind
direction
speed
KPH
gust
KPH
rain 1hr
cm
rain 24hr
cm
rain mn
cm
humidity
%
barometer
mb
20260508020057 8 0 0.0 0.0 0.00 0.00 0.00 88 1014.4
20260508014559 8 0 0.0 0.0 0.00 0.00 0.00 87 1014.5
20260508013100 8 0 0.0 0.0 0.00 0.00 0.00 87 1014.6
20260508011556 8 0 0.0 3.2 0.00 0.00 0.00 87 1014.5
20260508010057 9 0 0.0 1.6 0.00 0.00 0.00 89 1014.5
20260508004601 9 0 0.0 4.8 0.00 0.00 0.00 89 1014.6
20260508003107 9 0 0.0 0.0 0.00 0.00 0.00 89 1014.6
20260508001600 9 0 0.0 0.0 0.00 0.00 0.00 89 1014.7
20260508000100 9 0 0.0 0.0 0.00 0.00 0.00 88 1014.7
20260507234601 9 0 0.0 1.6 0.00 0.00 0.00 88 1014.6
20260507233100 9 0 0.0 3.2 0.00 0.00 0.00 88 1014.6
20260507231603 9 240 0.0 3.2 0.00 0.00 0.00 87 1014.5
20260507230102 9 266 1.6 3.2 0.00 0.00 0.00 87 1014.6
20260507224620 9 256 0.0 4.8 0.00 0.00 0.00 87 1014.4
20260507223101 10 158 0.0 4.8 0.00 0.00 0.00 86 1014.3
20260507221558 10 243 0.0 3.2 0.00 0.00 0.00 85 1014.3
20260507220058 10 196 0.0 4.8 0.00 0.00 0.00 84 1014.3
20260507214604 10 181 0.0 3.2 0.00 0.00 0.00 84 1014.3
20260507213101 10 0 0.0 3.2 0.00 0.00 0.00 83 1014.2
20260507211626 10 283 0.0 3.2 0.00 0.00 0.00 83 1014.1
20260507204605 10 257 1.6 4.8 0.00 0.00 0.00 82 1013.9
20260507203101 10 248 1.6 6.4 0.00 0.00 0.00 82 1013.6
20260507201612 10 233 3.2 9.7 0.00 0.00 0.00 81 1013.5
20260507200104 10 257 3.2 9.7 0.00 0.00 0.00 79 1013.3
20260507194604 11 257 6.4 16.1 0.00 0.00 0.00 78 1013.1
20260507193057 11 205 3.2 9.7 0.00 0.00 0.00 79 1012.9
20260507191600 11 148 1.6 9.7 0.00 0.00 0.00 78 1012.8
20260507190057 11 151 1.6 8.0 0.00 0.00 0.00 77 1012.8
20260507184558 11 239 1.6 8.0 0.00 0.00 0.00 76 1012.9
20260507183059 12 255 3.2 9.7 0.00 0.00 0.00 76 1012.7
20260507181559 12 151 4.8 14.5 0.00 0.00 0.00 75 1012.5
20260507180059 12 195 4.8 9.7 0.00 0.00 0.00 75 1012.5
20260507174557 12 224 4.8 12.9 0.00 0.00 0.00 75 1012.4
20260507173101 12 145 3.2 6.4 0.00 0.00 0.00 75 1012.2
20260507171602 12 245 3.2 9.7 0.00 0.00 0.00 73 1012.4
20260507170058 12 226 4.8 14.5 0.00 0.00 0.00 71 1012.3
20260507164559 12 278 4.8 11.3 0.00 0.00 0.00 69 1012.3
20260507163057 13 263 3.2 6.4 0.00 0.00 0.00 69 1012.3
20260507161600 13 260 3.2 6.4 0.00 0.00 0.00 68 1012.2
20260507160108 13 177 1.6 6.4 0.00 0.00 0.00 69 1012.2
20260507154559 13 285 1.6 9.7 0.00 0.00 0.00 68 1012.5
20260507153100 13 254 4.8 6.4 0.00 0.00 0.00 66 1012.4
20260507151558 13 222 4.8 9.7 0.00 0.00 0.00 66 1012.4
20260507150057 13 247 6.4 14.5 0.00 0.00 0.00 64 1012.4
20260507144556 13 262 4.8 12.9 0.00 0.00 0.00 58 1012.4
20260507143105 14 270 4.8 8.0 0.00 0.00 0.00 64 1012.4
20260507141559 13 243 4.8 12.9 0.00 0.00 0.00 64 1012.5
20260507140111 14 200 4.8 14.5 0.00 0.00 0.00 61 1012.6
20260507134556 14 229 4.8 11.3 0.00 0.00 0.00 59 1012.4
20260507133058 14 236 4.8 9.7 0.00 0.00 0.00 59 1012.7
20260507131600 13 283 4.8 16.1 0.00 0.00 0.00 60 1012.7
20260507130058 13 276 6.4 16.1 0.00 0.00 0.00 58 1012.8
20260507124559 13 153 6.4 17.7 0.00 0.00 0.00 62 1012.8
20260507123059 13 122 4.8 12.9 0.00 0.00 0.00 62 1012.9
20260507121559 13 239 4.8 17.7 0.00 0.00 0.00 63 1012.9
20260507120058 13 340 8.0 16.1 0.00 0.00 0.00 65 1012.8
20260507114558 12 175 4.8 12.9 0.00 0.00 0.00 69 1013.0
20260507113058 13 128 4.8 19.3 0.00 0.00 0.00 71 1013.1
20260507111556 13 207 4.8 12.9 0.00 0.00 0.00 72 1013.1
20260507110059 12 113 8.0 14.5 0.00 0.00 0.00 76 1013.0
20260507104558 11 177 4.8 14.5 0.00 0.00 0.00 78 1013.1
20260507103055 12 141 4.8 14.5 0.00 0.00 0.00 77 1013.3
20260507101606 12 201 8.0 16.1 0.00 0.00 0.00 77 1013.2
20260507094603 11 188 8.0 17.7 0.00 0.00 0.00 82 1013.4
20260507093100 11 231 6.4 12.9 0.00 0.00 0.00 82 1013.4
20260507091605 10 151 0.0 4.8 0.00 0.00 0.00 84 1013.4
20260507090112 10 179 1.6 6.4 0.00 0.00 0.00 84 1013.3
20260507084559 10 257 0.0 6.4 0.00 0.00 0.00 83 1013.4
20260507083102 10 194 0.0 4.8 0.00 0.00 0.00 85 1013.5
20260507081601 10 172 1.6 4.8 0.00 0.00 0.00 86 1013.6
20260507080057 9 155 0.0 3.2 0.00 0.00 0.00 87 1013.6
20260507074600 9 257 0.0 3.2 0.00 0.00 0.00 87 1013.6
20260507073110 8 0 0.0 3.2 0.00 0.00 0.00 88 1013.6
20260507071600 8 0 0.0 0.0 0.00 0.00 0.00 89 1013.5
20260507070137 8 0 0.0 1.6 0.00 0.00 0.00 88 1013.5
20260507064557 8 150 0.0 3.2 0.00 0.00 0.00 88 1013.5
20260507063100 8 209 1.6 3.2 0.00 0.00 0.00 90 1013.5
20260507061557 7 0 0.0 0.0 0.00 0.00 0.00 93 1013.4
20260507060057 7 0 0.0 0.0 0.00 0.00 0.00 92 1013.4
20260507054604 7 0 0.0 0.0 0.00 0.00 0.00 92 1013.4
20260507053057 7 0 0.0 0.0 0.00 0.00 0.00 91 1013.3
20260507051559 7 0 0.0 0.0 0.00 0.00 0.00 91 1013.3
20260507050104 7 0 0.0 0.0 0.00 0.00 0.00 91 1013.4
20260507044603 7 0 0.0 0.0 0.00 0.00 0.00 91 1013.4
20260507043056 7 0 0.0 0.0 0.00 0.00 0.00 91 1013.4
20260507041600 7 187 0.0 1.6 0.00 0.00 0.00 90 1013.3
20260507040100 7 0 0.0 3.2 0.00 0.00 0.00 90 1013.3
20260507034603 8 171 0.0 3.2 0.00 0.00 0.00 90 1013.3
20260507033059 7 0 0.0 4.8 0.00 0.00 0.00 90 1013.4
20260507031558 7 167 0.0 3.2 0.00 0.00 0.00 90 1013.4
20260507030108 8 0 0.0 0.0 0.00 0.00 0.00 90 1013.4
20260507024613 8 0 0.0 0.0 0.00 0.00 0.00 89 1013.5
20260507023058 8 0 0.0 1.6 0.00 0.00 0.00 89 1013.6
20260507021615 8 0 0.0 0.0 0.00 0.00 0.00 89 1013.5